Location: Fensholt
(55.9856°N, 10.0808°E)
Time: 19:05:22
(UTC+00:00)

ARIANE 5 R/B - Pass Details

Date: 07 June 2020
Orbit: 748 x 796 km, 98.6° (Epoch: 02 July)

Event Time Altitude Azimuth Distance (km) Brightness Sun altitude
Rises 01:10:26 0° 23° (NNE) 3,230 8.3 -7.7°
Reaches altitude 10° 01:13:11 10° 37° (NE) 2,293 6.6 -7.6°
Maximum altitude 01:17:15 24° 91° (E) 1,529 4.4 -7.3°
Drops below altitude 10° 01:21:15 10° 144° (SE) 2,267 4.7 -7.0°
Sets 01:23:57 0° 159° (SSE) 3,185 5.3 -6.9°
